Hauptseite
METAR-TAF:

METAR-TAF

Flughäfen :

Plzeň, Tschechien

Breite: 49-40-31N, Länge: 13-16-29E, Höhe: 362 m

Beobachtung

Neuester Wetterbericht von vor 10 Minuten, um 03:00 UTC
Wind 1 kt aus unterschiedlichen Richtungen
Temperatur 17°C
Luftfeuchtigkeit 72%
Luftdruck 1019 hPa
Sichtweite 10 km oder mehr
Durchbrochene Bewölkung in der Höhe von 8300 ft

METAR: LKLN 200300Z AUTO VRB01KT 9999 BKN083 17/12 Q1019

Zeit: 05:10 (03:10 UTC)


TAF: fehlend

Wetterbeobachtungen und Prognosen von mehr als 4000 Flughäfen (METAR und TAF Bericht).

Die verfügbaren Stationen werden durch gelbe und rote Markierungen auf der Karte dargestellt.

Führen Sie die Maus auf sie, um den Namen der Station zu sehen.

Darauf klicken, um die Beobachtung von Wetterbeobachtungen und Prognosen zu sehen.

Um die Karte zu ändern : klicken Sie auf den grünen Tasten mit einem schwarzen Kreuz Zum Vergrößern, auf den grünen Button mit einem Gedankenstrich zu verkleinern, oder auf die grünen Pfeile für benachbarte Karten.


METAR-TAF: